Current weather by "City, St" or "zip code"  
 

Current Conditions: Fitchburg, Fitchburg Municipal Airport, MA

Overcast


60.0 F

Last Updated on Sep 18 2020, 3:52 am EDT
Humidity: 70%
Wind Speed: N 9.2 mph
Barometer 30.00 in
Dewpoint: 50.0 F
Visibility: 10.00 mi
Precip: --
Heat Index: NA
Wind Chill: 59 F
Current conditions at:

Fitchburg, Fitchburg Municipal Airport, MA (KFIT)

Lat: 42.55194 Lon: 71.75583

Local Radar Image active severe weather and emergency alerts image image weather storm and storm spotter reports image weather observation monitoring service image
Local
Radar
Active
Alerts
Storm Reports Obs
Monitoring

Sign-up For Email & Text Message Weather Alert Notification Services



Advertise Here

Observation History for Fitchburg, Fitchburg Municipal Airport, MA


Time Wind
(mph)
Vis
(mi)
Weather Precip (in) Temperature (F) Relative
Humidity
Wind
Chill
(F)
Heat
Index
(F)
Pressure
Air Dwpt altimeter
(in)
sea level
(mb)
Rmks
3:52 am EDT N 9.2 10.00 Overcast -- 60.0 50.0 70% 59 NA 30.00 1015.7
2:52 am EDT N 0.0 10.00 Overcast -- 59.0 50.0 72% NA NA 30.00 1015.6
1:52 am EDT N 3.5 10.00 Mostly Cloudy -- 58.0 50.0 75% NA NA 30.01 1016.3
12:52 am EDT N 3.5 10.00 Mostly Cloudy -- 60.0 50.0 70% NA NA 30.03 1016.6
11:52 pm EDT NW 3.5 10.00 Overcast -- 61.0 51.1 70% NA NA 30.03 1016.7
10:52 pm EDT NW 3.5 10.00 Fair -- 60.0 51.1 72% NA NA 30.02 1016.7
9:52 pm EDT NW 5.8 10.00 Fair -- 62.0 52.0 70% 62 NA 30.02 1016.6
8:52 pm EDT N 5.8 10.00 Fair -- 64.0 52.0 65% NA NA 30.03 1016.7
7:52 pm EDT N 9.2 10.00 Overcast -- 68.0 54.0 61% NA NA 30.01 1016.1
6:52 pm EDT N 0.0 10.00 Mostly Cloudy -- 69.0 55.9 63% NA NA 29.98 1015.1
5:52 pm EDT W 3.5 10.00 Fair -- 72.0 55.0 55% NA NA 29.97 1014.9
4:52 pm EDT SW 5.8 10.00 Fair -- 73.0 54.0 51% NA NA 29.97 1014.9
3:52 pm EDT SW 5.8 10.00 A Few Clouds -- 75.0 53.1 46% NA NA 29.98 1015.0
2:52 pm EDT W 5.8 10.00 A Few Clouds -- 77.0 54.0 45% NA NA 29.98 1015.2
1:52 pm EDT NW 9.2 10.00 Fair -- 77.0 53.1 43% NA NA 29.99 1015.3
12:52 pm EDT NW 10.4 10.00 Fair -- 77.0 55.0 47% NA NA 30.00 1015.7
11:52 am EDT W 9.2 10.00 Fair -- 74.0 53.1 48% NA NA 30.02 1016.3
10:52 am EDT W 9.2 10.00 Fair -- 70.0 53.1 55% NA NA 30.04 1017.1
9:52 am EDT W 8.1 10.00 Fair -- 67.0 53.1 61% NA NA 30.04 1017.3
8:52 am EDT 3.5 10.00 Fair -- 64.0 54.0 70% NA NA 30.03 1017.0
7:52 am EDT N 0.0 10.00 Fair -- 61.0 54.0 78% NA NA 30.03 1016.8
6:52 am EDT N 0.0 10.00 Fair -- 59.0 53.1 81% NA NA 30.03 1016.9
5:52 am EDT N 0.0 10.00 Fair -- 60.0 53.1 78% NA NA 30.03 1017.0
4:52 am EDT SW 5.8 10.00 Fair -- 61.0 53.1 75% 61 NA 30.03 1016.8

Regional Weather Observation


Keene, Dillant-Hopkins Airport, NH (KEEN)

Overcast
57.0 F

Fitchburg, Fitchburg Municipal Airport, MA (KFIT)

Overcast
60.0 F

Nashua - Boire Field Airport, NH (KASH)

Overcast
60.0 F

Manchester Airport, NH (KMHT)

Overcast
61.0 F

Orange Municipal Airport, MA (KORE)

Overcast
58.0 F

Worcester, Worcester Regional Airport, MA (KORH)

Fair
57.0 F